Retour au catalogue

KSLV-II DUMMY

ActifScienceSSO
NORAD 52895·PAYLOAD·🇰🇷 South Korea

Lancé Jun 21, 2022 depuis Naro Space Center

Loading…

Prochains Passages (prochaines 24 heures)

TLE

FraisSource: Space-Track

Époque: Sep 14, 2026, 14:56 UTC

1 52895U 22065B   26257.62268671  .00000012  00000-0  12632-4 0  9995
2 52895  98.2484  36.7430 0009425 115.0701 245.1478 14.58702089225390

Suivez KSLV-II DUMMY en temps réel avec AllMySat

Download on the App Store